Wind_Speed
9 6 5 6 6 6 4 6 2 3 3 2 5 7 2 6 3 4 3 8 8 19 22 29 30 29 27 25 24 25 29 34 35 34 34 33 31 29 29 28 26 24 22 21 19 18 17 17 19
8 6 6 2 6 9 7 3 0 7 7 9 9 11 10 2 1 2 5 8 12 15 20 25 31 30 28 26 25 26 30 34 35 35 35 33 31 30 29 28 27 26 24 23 21 19 17 19 20
6 5 5 4 4 5 8 4 6 9 3 2 4 5 3 3 3 3 3 9 12 15 19 23 32 32 30 26 25 26 31 34 34 35 35 33 32 30 28 27 25 24 22 21 20 20 20 22 23
7 6 3 6 4 4 1 5 6 8 5 4 3 4 3 3 3 4 2 11 11 13 15 19 30 31 31 28 26 27 30 33 33 35 35 35 32 29 27 26 25 23 22 21 20 20 21 25 25
6 3 5 5 5 2 4 3 3 5 5 7 5 2 1 4 3 2 5 11 12 12 13 14 28 31 31 30 28 28 30 34 34 35 36 35 33 30 29 28 26 24 24 24 23 23 24 25 25
5 4 6 8 6 4 4 3 2 3 5 5 3 8 4 5 4 1 4 9 11 14 15 15 28 30 31 31 31 30 30 33 34 35 35 35 33 31 29 29 28 27 27 26 24 23 25 27 26
9 6 3 4 2 6 1 2 3 5 8 5 9 6 2 9 7 3 3 7 9 11 14 16 20 27 30 31 31 30 30 30 32 33 35 35 33 31 30 30 29 28 28 26 25 25 26 27 27
5 4 5 5 3 2 5 2 4 7 5 9 5 3 3 10 6 4 1 6 9 11 14 16 17 21 23 24 31 31 31 31 32 34 35 34 32 31 30 31 30 28 28 26 26 26 26 27 28
4 6 6 4 5 5 5 8 9 7 9 4 6 7 11 8 6 6 4 7 11 13 15 17 19 21 23 22 24 33 33 32 32 33 34 34 27 25 24 25 27 30 28 26 26 25 27 29 28
9 7 4 2 1 4 8 9 11 9 9 7 9 9 5 7 11 9 9 11 13 16 17 20 22 22 20 21 21 24 24 26 27 27 27 28 26 24 25 26 29 32 27 26 26 26 26 26 25
7 11 2 6 9 9 13 13 8 11 11 6 12 11 9 8 8 9 11 15 16 14 15 16 17 19 21 20 20 20 27 27 27 29 29 29 28 27 29 29 29 26 26 21 25 25 24 24 23
9 10 9 10 7 10 13 12 11 12 14 12 8 6 3 6 7 8 11 14 16 16 14 16 18 19 21 21 21 22 28 31 33 30 31 29 30 29 29 31 28 27 24 22 21 23 24 24 24
12 10 7 9 9 14 14 18 17 15 10 2 4 4 6 7 8 9 10 9 12 15 16 17 18 21 22 24 24 24 26 29 33 33 32 32 31 31 33 33 31 27 24 24 24 23 24 23 21
1 9 13 13 15 16 15 16 3 5 3 2 5 5 5 7 10 10 12 13 12 13 15 17 20 23 22 25 26 26 27 29 32 34 37 33 33 34 36 33 32 30 29 24 24 22 21 21 22
8 13 13 12 6 7 5 15 11 6 4 8 2 2 4 8 10 13 14 14 15 16 17 18 20 22 23 23 24 26 26 27 31 32 32 38 38 37 37 36 34 32 33 25 23 24 23 22 27
10 11 11 9 4 1 5 12 6 7 6 12 2 2 4 9 12 14 16 15 15 15 17 18 15 18 21 25 24 24 24 24 28 31 31 37 41 40 39 34 32 33 34 32 28 15 12 27 25
8 10 7 6 2 3 6 14 1 8 13 11 3 3 5 7 11 16 18 18 19 19 20 19 16 11 14 19 24 26 26 30 30 30 32 36 39 42 40 38 32 34 36 36 38 30 32 30 28
5 8 7 8 3 9 16 20 22 15 7 10 4 4 5 8 11 14 17 19 20 21 21 21 21 20 16 13 17 23 26 29 28 30 34 31 36 39 36 35 34 37 40 38 32 29 35 34 30
7 10 13 14 13 12 14 18 21 20 7 4 2 4 6 8 12 15 18 19 20 24 25 24 22 23 22 19 16 9 14 24 30 33 33 35 33 35 37 35 34 37 39 40 39 34 36 29 34
7 10 13 19 14 18 17 20 24 19 3 2 3 5 7 8 9 12 15 17 19 20 22 22 22 22 20 18 13 8 10 8 12 2 19 35 36 34 36 35 35 40 37 37 37 34 29 20 38
10 10 16 17 24 20 13 17 7 7 9 9 8 9 8 8 9 11 15 17 18 20 21 21 22 21 20 20 15 15 12 8 10 14 14 9 11 32 34 34 35 37 39 39 43 41 37 26 35
15 11 12 18 15 14 17 10 16 11 9 8 8 7 7 8 9 11 14 17 18 19 19 19 20 19 19 19 19 18 14 13 5 4 6 9 7 11 19 30 38 40 41 39 46 42 41 32 33
12 11 13 18 17 20 18 12 4 9 8 8 7 6 7 8 9 11 14 16 17 19 20 20 21 20 19 19 17 17 18 17 15 11 8 4 7 13 7 18 21 32 34 40 43 43 39 37 37
11 11 15 16 10 9 6 10 5 3 5 9 6 5 5 7 9 11 14 17 18 18 18 18 19 21 21 20 19 17 15 14 16 16 13 14 12 9 14 14 16 25 22 29 35 42 41 38 36
6 12 6 6 7 9 4 8 11 8 9 8 4 4 6 7 9 12 15 18 19 20 21 21 22 24 25 24 23 21 21 17 14 13 15 16 14 15 20 21 17 23 16 26 32 34 34 39 40
13 6 4 7 9 15 20 11 5 10 10 8 3 4 8 11 12 14 16 18 19 21 22 23 23 25 25 26 25 23 22 19 15 11 10 14 18 17 17 19 24 29 23 22 23 22 29 35 39
2 5 4 11 17 11 6 5 8 12 10 3 3 8 12 13 15 17 18 18 20 21 23 24 25 28 30 29 27 24 21 19 16 13 10 11 13 18 20 22 23 24 24 28 30 32 37 31 27
11 4 5 4 5 8 10 17 14 14 10 3 6 12 15 16 17 14 16 19 21 24 26 27 27 29 32 31 27 23 17 14 13 13 12 10 13 13 16 20 22 25 25 24 27 29 29 27 33
8 10 7 4 6 5 11 2 6 6 6 3 10 15 16 16 14 14 17 21 22 23 26 27 30 30 34 31 26 23 13 10 8 9 9 9 11 12 14 14 14 18 21 22 25 31 30 31 31
11 12 14 5 7 6 8 14 8 8 2 10 17 16 15 13 13 14 18 19 22 23 26 27 28 27 32 31 31 22 6 5 6 7 7 9 10 12 12 13 15 14 15 20 26 28 31 33 30
Wind_Direction
140 150 180 211 222 239 195 128 355 283 270 231 289 261 346 321 347 10 32 159 152 160 170 178 185 185 186 188 193 198 197 193 191 186 184 180 174 173 171 170 167 167 167 166 163 164 162 158 152
155 161 208 217 252 209 129 116 141 7 331 289 268 252 259 59 324 60 135 167 160 164 170 176 186 189 190 190 193 198 197 193 192 188 187 184 179 178 177 177 174 173 173 173 171 169 163 159 157
165 209 240 246 249 236 129 118 14 353 7 284 206 235 303 68 81 34 22 166 164 172 176 183 187 191 192 192 194 197 196 194 193 190 190 188 185 184 182 181 180 178 179 177 174 170 168 165 165
184 187 192 246 197 126 61 76 12 4 28 12 301 225 191 15 0 2 128 161 173 182 184 200 188 191 193 193 195 197 197 197 196 194 195 192 190 188 183 185 187 184 182 183 178 180 177 172 170
199 236 225 233 214 232 226 307 332 6 34 11 323 64 24 60 2 36 157 175 176 184 187 201 193 194 197 196 197 198 200 201 201 200 198 196 193 191 189 189 189 189 188 189 192 187 182 178 177
190 278 227 219 177 233 265 268 296 355 18 21 350 328 92 35 7 65 156 185 178 182 191 198 196 197 200 202 202 202 203 204 205 203 202 198 197 196 193 194 195 193 192 195 197 190 186 183 181
254 234 262 272 230 237 185 63 6 343 335 9 332 310 89 49 18 47 116 184 188 193 195 196 199 203 206 207 209 207 208 208 208 207 206 203 201 201 198 199 199 198 198 199 198 190 190 188 186
252 263 220 213 205 173 125 348 334 315 338 316 318 29 354 18 14 20 193 202 202 205 207 203 200 202 208 213 213 213 214 212 211 211 209 206 207 208 205 202 200 201 202 203 201 194 191 192 191
237 241 237 234 216 114 140 310 315 301 274 271 285 293 324 344 339 310 266 232 220 219 210 206 208 209 209 211 216 214 216 217 215 213 213 212 204 205 206 202 205 204 205 207 205 199 194 193 197
225 243 267 344 266 260 295 286 301 290 282 274 252 264 324 314 314 298 275 255 238 229 219 215 213 213 213 216 219 216 217 218 216 215 214 212 210 210 204 205 209 208 206 209 206 202 199 192 188
203 252 333 249 267 290 284 279 280 273 283 291 309 330 328 314 307 290 288 270 257 251 245 237 231 223 221 221 218 216 213 213 216 216 214 214 213 211 205 200 206 207 211 202 204 199 193 187 189
243 241 262 285 283 272 275 297 271 267 281 313 335 334 347 359 351 327 306 293 274 257 257 245 237 230 225 223 224 222 216 215 214 215 214 211 210 208 204 202 203 204 203 201 197 197 197 195 193
243 265 268 264 262 263 276 273 282 281 286 43 17 18 20 12 5 352 346 322 300 278 269 260 245 233 228 226 225 225 222 220 218 214 211 209 208 205 204 207 202 205 196 196 195 196 200 200 191
15 276 279 276 273 276 265 269 256 160 143 11 19 8 20 8 358 347 346 338 332 314 295 276 251 242 236 230 227 226 223 221 221 220 218 209 212 209 209 208 205 203 198 191 191 190 189 194 193
275 281 278 260 261 265 294 256 225 208 199 314 355 20 11 18 11 6 352 341 336 328 319 304 282 254 242 240 240 235 235 227 223 221 221 220 219 213 211 209 208 203 203 194 185 185 187 195 194
272 267 272 139 253 232 243 284 149 177 307 314 323 48 40 42 33 25 16 5 354 346 338 331 306 268 255 244 243 240 240 233 227 224 221 224 224 218 214 210 208 203 199 192 176 169 193 213 197
214 278 275 296 167 298 254 296 139 223 310 293 321 55 62 49 35 26 22 20 17 12 7 3 0 334 286 270 252 250 239 235 231 229 227 224 222 225 218 213 206 203 201 191 188 213 212 203 189
320 280 287 293 342 293 293 284 291 293 280 321 339 78 73 58 45 36 30 26 25 24 23 26 23 14 354 313 278 261 248 243 236 230 226 226 225 220 214 213 204 205 199 196 199 192 186 187 175
285 286 295 303 332 318 287 289 286 293 284 252 317 78 72 63 52 41 34 30 26 26 23 21 23 27 24 19 13 319 269 240 237 236 230 230 225 225 222 212 200 197 197 201 198 187 180 175 172
247 285 289 304 310 319 298 289 280 288 22 71 148 93 76 72 58 48 38 31 26 20 17 17 17 12 12 10 6 20 9 23 27 333 227 220 227 230 224 217 198 200 197 197 190 179 173 172 175
251 278 293 304 314 298 310 291 143 98 118 121 111 100 85 61 44 36 30 25 18 14 9 5 1 357 358 358 349 347 340 4 21 13 12 6 237 223 228 223 217 206 201 193 188 183 181 177 185
288 308 298 301 304 300 328 292 290 154 141 132 113 92 72 49 38 29 18 11 5 4 357 352 352 351 344 343 343 339 332 331 339 353 13 346 337 299 231 218 217 212 208 197 191 191 188 180 185
283 315 290 289 281 292 278 265 290 148 161 138 115 89 60 40 24 10 8 1 356 353 348 343 339 337 337 336 329 328 321 314 313 306 292 282 261 265 321 292 249 217 210 206 190 191 192 188 187
294 286 279 270 277 259 299 242 290 147 165 140 130 81 39 16 11 0 356 347 342 340 336 330 328 323 321 319 315 307 295 298 300 301 289 281 290 279 271 283 298 296 233 215 210 199 196 188 191
235 318 298 264 215 268 86 288 287 100 128 145 132 39 15 1 358 342 342 340 335 330 328 326 325 322 320 314 308 303 292 276 266 277 288 289 279 264 251 250 262 258 270 274 235 208 209 194 191
302 278 274 297 293 302 315 264 121 127 134 131 92 11 2 350 341 337 334 330 328 327 328 324 316 314 314 310 301 298 291 281 276 264 262 272 276 271 257 248 239 229 227 255 258 237 224 204 198
125 247 9 284 269 276 230 145 165 163 161 165 9 347 335 334 332 331 334 329 322 320 320 319 314 314 315 312 299 296 286 273 277 276 272 271 273 276 265 256 253 249 243 234 227 225 222 213 209
244 17 246 212 277 276 271 282 310 180 182 244 316 336 329 328 328 331 324 321 316 320 320 319 318 312 318 311 299 287 275 275 277 278 272 270 278 270 270 265 256 249 244 237 229 226 226 210 207
220 237 235 293 252 269 304 351 26 124 151 264 331 323 324 322 323 320 317 320 321 319 321 318 317 312 316 309 295 283 270 267 267 275 276 283 286 278 281 278 280 267 247 245 239 227 216 213 213
259 263 229 222 211 234 271 284 102 122 136 318 330 326 325 316 317 318 319 315 319 321 322 315 314 311 314 305 293 273 263 285 298 298 313 308 295 294 292 292 289 278 269 244 241 241 230 213 212
Height
788 791 791 787 792 782 780 783 774 772 769 761 761 764 757 753 759 774 755 756 758 760 764 766 770 772 775 777 780 782 784 787 790 794 797 799 801 804 806 808 810 812 814 816 818 822 822 823 825
790 790 789 780 787 784 780 776 777 772 766 761 762 762 763 755 747 750 754 758 760 763 765 768 769 772 774 777 779 781 784 788 791 793 797 800 802 805 807 809 809 810 811 814 816 820 823 824 827
790 789 780 780 779 775 780 775 774 768 763 763 759 753 752 752 750 754 758 760 762 764 766 767 767 771 775 778 780 783 786 788 792 795 798 801 803 805 808 811 813 814 816 817 819 820 820 823 825
787 785 783 784 781 777 776 772 772 769 761 758 757 759 752 756 756 759 758 760 763 765 768 770 770 773 776 778 781 783 787 790 793 795 797 800 803 806 809 812 814 815 816 819 820 821 822 822 824
786 778 782 784 781 777 773 771 771 773 769 764 757 759 756 755 758 759 760 761 763 767 769 771 772 774 776 778 781 783 786 788 791 793 796 799 802 805 807 809 812 814 815 816 817 818 821 824 826
781 777 785 782 778 775 770 768 772 771 766 763 761 761 756 759 758 760 761 763 763 764 768 770 770 774 777 779 781 782 784 787 790 794 797 800 802 804 806 808 809 811 811 813 816 819 822 823 826
779 780 779 781 781 779 773 769 771 772 768 767 763 765 756 756 761 760 761 764 764 766 767 769 770 773 776 779 781 783 786 788 792 794 796 799 801 803 805 807 809 811 811 813 816 818 822 824 826
776 777 784 777 779 777 771 772 770 771 771 765 760 762 761 760 762 762 762 764 765 766 767 768 769 771 775 779 781 784 786 787 789 791 794 797 799 801 803 805 807 810 811 813 815 817 821 825 826
779 783 778 776 778 773 771 774 764 765 769 766 762 758 757 760 761 761 762 763 764 764 765 766 768 768 771 775 777 780 783 786 789 791 793 796 798 800 804 807 807 808 809 812 815 817 820 822 827
780 779 771 768 769 772 770 771 768 768 762 762 762 755 758 760 759 758 756 756 758 759 761 762 764 767 770 772 775 778 782 785 787 789 792 796 798 800 801 804 805 805 808 811 813 816 819 823 825
775 779 765 770 768 768 769 765 758 764 764 758 759 759 760 759 756 755 753 752 751 756 759 762 765 767 769 771 772 774 777 779 782 785 788 791 794 795 798 798 802 807 809 810 812 814 818 820 824
783 772 770 767 768 770 768 759 762 758 758 754 757 759 758 757 758 757 754 752 751 752 756 758 760 762 764 766 768 770 771 772 775 779 782 785 788 790 792 793 797 801 804 809 811 813 817 819 822
779 769 768 767 767 766 763 762 759 756 752 755 757 758 760 760 763 761 760 757 755 753 754 756 757 757 759 761 762 764 766 768 768 771 775 778 780 782 785 789 791 797 799 803 808 811 815 817 821
771 771 768 764 762 758 763 757 759 751 753 754 757 758 759 760 761 760 760 759 757 755 754 753 753 754 755 755 756 758 759 760 763 764 768 772 775 777 779 783 787 791 795 800 804 809 813 816 818
771 776 761 757 757 758 757 758 757 746 752 750 758 760 761 763 763 763 763 760 758 756 755 753 751 750 751 753 754 755 756 757 757 760 763 766 768 770 773 777 781 785 789 795 801 803 808 812 816
774 768 772 758 758 757 762 756 741 748 748 749 756 760 763 765 767 768 766 763 761 759 756 751 748 747 747 747 750 751 752 753 753 756 759 760 761 764 768 773 775 778 784 788 793 802 794 809 815
768 771 763 761 758 759 763 756 739 742 742 748 754 759 763 764 767 768 767 765 763 760 755 751 748 746 745 746 747 747 746 747 747 750 753 755 756 757 760 765 769 771 776 781 783 786 790 804 809
770 770 762 766 758 761 762 755 739 736 746 750 757 762 765 768 771 773 772 770 766 763 759 755 752 748 745 743 744 745 744 744 744 743 745 748 751 752 756 759 759 763 766 773 779 781 789 796 802
774 772 767 755 753 767 764 757 745 733 739 754 763 765 769 772 774 775 774 772 769 766 762 758 754 752 750 745 743 742 740 738 738 738 739 741 744 746 749 751 751 756 760 764 770 777 783 791 796
772 773 767 753 748 758 754 751 739 733 745 760 766 770 772 774 776 776 775 774 773 771 768 764 762 760 756 754 751 746 743 739 737 732 732 731 735 740 742 744 745 746 752 757 763 769 777 782 784
766 769 766 767 753 745 745 740 721 756 760 767 771 773 776 778 777 778 778 777 776 775 773 770 766 763 761 759 754 750 746 742 736 735 734 733 733 733 735 735 739 741 745 747 751 756 762 770 777
774 756 766 767 765 758 744 753 724 748 763 768 774 776 779 780 780 780 779 778 776 774 773 772 769 765 762 760 757 753 749 747 742 737 732 738 738 734 728 730 732 733 735 738 738 745 747 756 766
768 761 766 765 762 754 747 750 722 752 767 774 778 780 781 782 783 781 780 780 778 777 775 772 768 765 763 760 758 754 752 749 744 740 734 728 735 737 727 735 733 724 729 729 718 732 738 741 753
764 765 755 747 753 758 731 742 724 748 758 775 781 783 783 783 782 784 782 781 778 775 772 769 764 761 761 757 755 750 747 745 742 738 737 737 730 726 734 732 729 737 718 729 720 726 728 730 740
766 764 766 755 758 744 743 750 735 764 766 773 782 783 784 782 783 780 778 776 775 773 771 768 765 761 759 757 753 749 745 741 736 735 735 733 729 728 727 730 728 734 724 728 729 721 723 725 729
773 772 776 784 757 746 737 739 738 769 778 783 786 786 785 785 783 780 777 776 775 773 769 766 762 757 754 750 746 743 740 736 734 730 728 729 728 726 726 726 725 719 717 724 725 727 726 716 723
779 776 768 778 765 761 725 747 763 771 781 787 787 787 785 784 781 778 777 776 774 770 767 764 760 757 753 749 741 738 735 733 729 727 725 722 722 723 721 718 718 719 716 715 719 723 725 722 722
773 769 780 783 792 760 720 717 718 768 777 785 784 785 783 781 778 777 777 775 772 769 767 763 759 754 750 746 740 734 729 726 725 726 723 719 719 718 717 711 712 712 710 708 711 714 720 716 718
776 777 779 778 776 772 752 733 757 761 774 781 784 784 780 779 779 778 776 773 771 767 763 760 758 753 747 742 736 729 725 723 722 721 720 717 716 714 713 708 706 706 704 703 707 708 710 711 716
772 774 776 791 777 781 775 750 763 774 778 778 779 783 782 781 780 778 775 771 766 764 761 758 751 746 744 737 730 723 723 721 720 720 714 715 714 713 707 704 705 701 700 699 701 702 704 706 710